Location: Eastlake (historical)
(39.0077°N, 122.6678°W)
Time: 05:46:44
(UTC+00:00)

Cosmos 2228 Rocket - Pass Details

Date: 25 November 2020
Orbit: 618 x 652 km, 82.5° (Epoch: 27 January)

Event Time Altitude Azimuth Distance (km) Brightness Sun altitude
Rises 14:00:59 0° 359° (N) 2,922 6.3 -12.4°
Reaches altitude 10° 14:03:20 10° 6° (N) 2,006 5.6 -12.0°
Maximum altitude 14:07:35 44° 79° (E) 858 4.3 -11.2°
Drops below altitude 10° 14:11:47 10° 152° (SSE) 1,979 6.4 -10.4°
Sets 14:14:04 0° 159° (SSE) 2,878 7.1 -10.0°
